Location: Cormont
(50.5693°N, 1.7416°E)
Time: 01:07:55
(UTC+00:00)

Nadezhda 3 Rocket - Pass Details

Date: 21 October 2019
Orbit: 957 x 999 km, 82.9° (Epoch: 13 November)

Event Time Altitude Azimuth Distance (km) Brightness Sun altitude
Rises 17:15:10 0° 185° (S) 3,678 7.2 -4.8°
Reaches altitude 10° 17:17:39 10° 184° (S) 2,740 6.6 -5.2°
Maximum altitude 17:23:57 84° 98° (E) 1,006 4.1 -6.1°
Drops below altitude 10° 17:30:21 10° 11° (N) 2,779 6.2 -7.2°
Sets 17:32:54 0° 11° (N) 3,734 6.9 -7.6°
